Location: Shepherdstown, WV
(39.4326°N, 77.8042°W)
Time: 06:41:08
(UTC-04:00)

Tiros 1 despin weight - Pass Details

Date: 27 July 2021
Orbit: 594 x 641 km, 48.2° (Epoch: 16 September)

Event Time Altitude Azimuth Distance (km) Brightness Sun altitude
Rises 22:11:21 0° 299° (WNW) 2,928 ? -17.2°
Reaches altitude 10° 22:13:42 10° 296° (WNW) 2,011 ? -17.5°
Maximum altitude 22:18:16 63° 216° (SW) 700 ? -18.1°
Enters shadow 22:19:49 38° 152° (SSE) 943 ? -18.4°
